This is the latest recevied weather packets stored in our database for station/object E24YPM-1. If no packets are shown the sender has not sent any weather packets the latest 10 day(s).
| Time | Temp. | Humidity | Pressure | Rain* | Wind** | Luminosity | Snow |
|---|---|---|---|---|---|---|---|
| 1777503816 | 33.89° C | 40% | 1004 hPa | - | - | 0 W/m² | - |
| 1777502901 | 33.33° C | 39% | 1004 hPa | - | - | 0 W/m² | - |
| 1777501988 | 33.33° C | 38% | 1004 hPa | - | - | 0 W/m² | - |
| 1777501076 | 33.33° C | 37% | 1003 hPa | - | - | 0 W/m² | - |
| 1777500161 | 32.78° C | 36% | 1003 hPa | - | - | 0 W/m² | - |
| 1777499252 | 32.22° C | 33% | 1003 hPa | - | - | 0 W/m² | - |
| 1777498333 | 32.22° C | 30% | 1003 hPa | - | - | 0 W/m² | - |
| 1777497339 | 31.11° C | 28% | 1002 hPa | - | - | 0 W/m² | - |
| 1777494547 | 31.11° C | 28% | 1003 hPa | - | - | 0 W/m² | - |
| 1777492366 | 31.67° C | 28% | 1003 hPa | - | - | 0 W/m² | - |
| 1777491454 | 31.67° C | 28% | 1003 hPa | - | - | 0 W/m² | - |
| 1777490542 | 31.67° C | 28% | 1003 hPa | - | - | 0 W/m² | - |
| 1777489621 | 31.67° C | 28% | 1003 hPa | - | - | 0 W/m² | - |
| 1777488709 | 31.67° C | 28% | 1003 hPa | - | - | 0 W/m² | - |
| 1777487799 | 31.67° C | 27% | 1003 hPa | - | - | 0 W/m² | - |
| 1777485973 | 31.67° C | 27% | 1004 hPa | - | - | 0 W/m² | - |
| 1777484132 | 31.67° C | 27% | 1004 hPa | - | - | 0 W/m² | - |
| 1777482313 | 31.67° C | 27% | 1004 hPa | - | - | 0 W/m² | - |
| 1777481392 | 32.22° C | 28% | 1004 hPa | - | - | 0 W/m² | - |
| 1777480478 | 32.22° C | 28% | 1004 hPa | - | - | 0 W/m² | - |
| 1777479561 | 32.22° C | 28% | 1004 hPa | - | - | 0 W/m² | - |
| 1777477707 | 32.22° C | 29% | 1004 hPa | - | - | 0 W/m² | - |
| 1777476789 | 32.22° C | 31% | 1004 hPa | - | - | 0 W/m² | - |
| 1777475872 | 31.67° C | 32% | 1004 hPa | - | - | 0 W/m² | - |
| 1777474957 | 32.22° C | 32% | 1003 hPa | - | - | 0 W/m² | - |
* Rain since midnight (hover to see other rain measurements)
** Current wind speed in m/s (hover to see current wind gust speed)